ITAMSAT (IO-26)

Last updated on Wed Sep 17 2025 00:03:09 GMT+0000 (Coordinated Universal Time)

1 22826U 93061D 25259.43877896 .00000106 00000+0 57156-4 0 9998 2 22826 98.7221 321.3350 0009304 160.7812 199.3723 14.31245343668159
UTC large
Height (km)
Speed (km/s)
/
Latitude / Longitude
Inclination (degrees)
Orbital Period (minutes)
Azimuth
Elevation
Range (km)
Doppler Factor

Next 0 passes for location: London (51.5072 / 0.1276)

Sorry there are no passes over London.